{"data":{"norad_id":63165,"intl_designator":"2025-046G","name":"QIANFAN-79","alt_names":[],"object_type":"PAYLOAD","status":"ACTIVE","operator":null,"country":"PRC","launch_date":"2025-03-11","launch_site_code":"WSC","launch_vehicle":null,"mission":null,"orbit_class":"UNKNOWN","rcs_meters":null,"size_class":null,"mass_kg":null,"dimensions":null,"purposes":[],"wikipedia_slug":null,"has_3d_model":false,"image_url":null,"decayed_at":null,"tle_current":{"epoch":"2026-05-25T04:11:07.255392Z","epoch_age_seconds":57449,"freshness":"FRESH","line1":"1 63165U 25046G   26145.17438953  .00000092  00000+0  12305-3 0  9990","line2":"2 63165  88.9694 303.1608 0015160  23.5560 336.6282 13.51007194 69446","mean_motion":13.51007194,"eccentricity":0.001516,"inclination_deg":88.9694,"raan_deg":303.1608,"arg_perigee_deg":23.556,"mean_anomaly_deg":336.6282,"bstar":0.00012305,"rev_number":6944,"period_min":106.5871452347,"perigee_km":1057.265964488,"apogee_km":1079.8443350862,"semimajor_km":7446.6921497871,"source":"CELESTRAK","updated_at":"2026-05-25T13:38:03.539537Z"}}}